Temperature
18 18 18 18 18 18 18 18 18 18 18 18 18 17 17 18 18 17 17 17 17 17 17 17 16 16 16 16 16 16 16 16 16 16 16 16 16 16 16 16 16 16 16
18 18 18 18 18 18 18 18 18 18 18 18 18 17 17 17 17 17 17 17 17 17 17 17 16 16 16 16 16 16 16 16 16 16 16 16 16 16 16 16 16 16 15
18 18 18 18 18 18 18 18 18 18 18 17 17 17 17 17 17 17 17 17 17 17 16 16 16 16 16 16 16 16 16 16 16 16 16 16 16 16 16 16 15 15 15
18 18 18 18 18 18 18 18 18 18 18 17 17 17 17 17 17 17 17 17 17 16 16 16 16 16 16 16 16 16 16 16 16 16 16 16 16 15 15 15 15 15 15
18 18 18 18 18 18 18 18 18 18 18 17 17 17 17 17 17 17 17 17 16 16 16 16 16 16 16 16 16 16 16 16 16 15 15 15 15 15 15 15 15 15 15
18 18 18 18 18 18 18 18 18 18 17 17 17 17 17 17 17 17 16 16 16 16 16 16 16 16 16 16 16 16 16 15 15 15 15 15 15 15 15 15 15 15 15
18 18 18 18 18 18 18 18 18 18 17 17 17 17 17 17 17 17 16 16 16 16 16 16 16 16 16 16 16 15 15 15 15 15 15 15 15 15 15 15 15 15 15
18 18 18 18 18 18 18 18 18 18 17 17 17 17 16 16 16 16 16 16 16 16 16 16 16 15 15 15 15 15 15 15 15 15 15 15 15 14 14 14 14 14 14
18 18 18 18 18 18 18 18 18 18 17 17 17 17 17 16 16 16 16 16 16 16 16 15 15 15 15 15 15 15 15 15 15 15 15 15 14 14 14 14 14 14 14
18 18 18 18 18 18 18 18 18 18 17 17 17 17 17 17 16 16 16 16 15 15 15 15 15 15 15 15 15 15 15 15 15 15 15 14 14 14 14 14 14 14 14
18 18 18 18 18 18 18 18 18 17 17 17 17 17 17 16 16 16 16 15 15 15 15 15 15 15 15 15 15 15 15 15 15 14 14 14 14 14 14 14 14 14 14
18 18 18 18 18 18 18 18 17 17 17 17 17 17 17 16 16 16 16 15 15 15 15 15 15 15 14 14 14 14 14 14 14 14 14 14 13 13 13 13 13 13 13
18 18 18 18 18 18 18 17 17 17 17 17 17 17 17 17 16 16 16 16 15 15 15 15 15 14 14 14 14 14 14 14 14 14 14 14 13 13 13 13 13 13 13
18 18 18 18 18 18 18 17 17 17 17 17 17 17 17 17 16 16 16 16 15 15 15 15 14 14 14 14 14 14 14 14 14 14 14 13 13 13 13 13 13 13 13
18 18 18 18 18 18 18 17 17 17 17 17 17 17 16 16 16 16 16 16 15 15 14 14 14 14 14 14 14 14 14 14 13 13 13 13 13 13 13 13 13 13 13
18 18 18 18 18 18 17 17 17 17 17 17 16 16 16 16 16 16 16 15 15 15 14 14 14 14 14 14 14 14 14 13 13 13 13 13 13 13 13 13 13 13 12
18 18 18 18 18 18 17 17 17 17 17 17 16 16 16 16 16 16 16 15 15 15 14 14 14 14 14 14 13 13 13 13 13 13 13 13 13 13 13 13 12 12 12
18 18 18 18 18 18 17 17 17 17 17 17 16 16 16 16 16 16 15 15 15 15 14 14 14 14 14 14 13 13 13 13 13 13 13 13 13 12 12 12 12 12 12
18 18 18 18 18 18 17 17 17 17 17 16 16 16 16 16 16 15 15 15 15 14 14 14 14 14 14 13 13 13 13 13 13 13 12 12 12 12 12 12 12 12 12
18 18 18 18 18 18 17 17 17 17 17 16 16 16 16 15 15 15 15 15 15 14 14 14 14 14 13 13 13 13 13 13 13 12 12 12 12 12 12 12 12 12 11
18 18 18 18 17 17 17 17 17 17 17 16 16 16 16 15 15 15 15 15 15 14 14 14 14 13 13 13 13 13 13 13 13 12 12 12 12 12 12 12 11 11 11
18 18 18 18 18 17 17 17 17 17 17 16 16 16 16 15 15 15 15 15 14 14 14 14 14 13 13 13 13 13 13 12 12 12 12 12 12 12 12 12 11 11 11
18 18 18 18 17 17 17 17 17 17 17 16 16 16 16 15 15 15 15 15 14 14 14 14 13 13 13 13 13 13 13 12 12 12 12 12 12 12 12 12 11 11 11
18 18 18 18 17 17 17 17 17 17 16 16 16 16 16 15 15 15 15 14 14 14 14 13 13 13 13 13 13 13 12 12 12 12 12 12 12 12 12 12 11 11 11
19 18 18 18 17 17 17 17 17 16 16 16 16 16 16 15 15 15 14 14 14 14 14 14 13 13 13 13 12 12 12 12 12 12 12 11 12 12 12 12 11 11 11
19 18 18 18 17 17 17 17 16 16 16 16 16 16 16 15 15 15 14 14 14 14 14 14 13 13 13 13 12 12 12 12 12 11 12 11 11 11 11 11 11 11 11
Wind_Speed
1 1 1 0 0 1 1 1 2 2 2 2 1 0 1 1 1 2 2 4 5 6 6 7 7 8 8 9 9 10 10 10 10 10 10 10 10 10 10 10 10 10 10
2 1 1 0 0 1 1 1 1 1 1 1 1 1 0 0 0 1 1 1 3 4 5 5 6 7 8 8 8 9 10 10 10 11 11 11 11 11 10 10 10 10 10
3 2 1 0 0 1 1 2 1 1 1 1 1 1 1 1 2 1 1 1 0 1 3 4 5 6 7 7 7 8 9 10 10 11 12 12 12 11 11 11 10 10 10
3 3 2 1 1 2 1 1 1 2 1 1 1 1 2 2 2 2 2 1 1 1 1 2 3 3 4 5 7 8 8 9 10 10 11 12 12 12 12 11 11 11 11
2 3 2 1 2 2 1 1 2 1 1 1 1 2 2 2 2 2 2 2 2 2 2 2 2 2 3 4 5 6 7 8 9 10 10 10 10 10 11 11 11 11 11
2 3 2 2 2 2 1 2 2 2 2 2 3 4 3 3 3 2 2 3 3 3 3 3 3 3 3 2 2 3 3 5 7 8 9 10 10 10 11 11 11 11 12
2 3 2 2 2 2 2 2 2 3 2 2 3 3 3 4 3 3 2 2 3 3 4 4 4 4 4 5 4 4 3 2 3 4 5 8 9 9 9 10 10 10 11
2 2 2 2 2 2 2 2 2 2 2 1 2 2 1 2 3 3 2 2 3 3 4 5 5 5 4 4 5 6 4 3 1 1 2 3 5 6 6 6 7 8 9
2 1 1 2 2 2 2 2 2 3 2 1 1 2 2 1 0 2 3 3 3 3 3 4 5 5 5 5 4 5 5 5 4 3 2 2 3 4 4 4 5 6 8
1 1 1 2 1 2 2 1 2 2 3 2 1 1 1 2 2 0 1 2 3 2 2 2 3 4 5 5 4 6 7 6 5 5 4 4 3 3 3 4 4 4 5
1 1 1 2 1 1 2 2 2 2 2 2 1 1 2 2 1 2 1 1 2 2 2 1 2 3 4 4 4 5 6 7 6 6 5 5 4 4 3 3 3 3 4
1 1 2 2 1 1 2 2 2 2 2 2 2 2 2 1 1 2 1 1 0 1 1 1 1 2 2 3 3 5 5 6 6 6 5 5 4 3 3 3 2 2 3
0 0 1 1 1 1 2 2 2 2 2 2 2 1 1 1 2 2 2 1 1 0 1 1 1 1 1 1 2 3 3 4 5 5 5 4 4 3 2 2 2 2 2
1 1 1 1 1 1 2 2 2 2 2 2 2 2 1 1 2 2 3 3 2 0 1 1 1 0 1 1 1 2 2 3 3 4 4 4 4 4 3 3 3 3 3
1 2 2 2 2 2 2 3 2 2 2 2 1 2 1 1 2 2 2 3 3 2 1 1 1 1 1 1 0 1 1 2 3 3 3 3 4 4 4 5 4 4 4
2 2 2 2 2 2 2 3 2 2 2 1 1 1 1 0 1 2 2 2 2 3 2 1 2 1 1 1 1 1 0 1 1 2 2 2 2 3 3 3 3 3 4
2 3 2 2 2 2 2 2 2 2 2 1 1 1 1 1 2 2 2 3 2 2 2 1 1 1 2 1 0 1 1 1 0 0 0 1 1 1 2 3 2 3 3
3 3 2 2 2 2 2 3 2 2 2 2 1 1 1 1 2 2 3 3 2 2 3 2 1 1 2 2 1 1 1 1 1 1 1 1 1 2 2 2 2 3 3
3 3 3 3 3 3 3 3 3 2 2 2 2 2 2 2 2 2 3 3 3 2 2 2 1 1 1 1 1 1 1 1 2 2 2 3 3 3 4 3 4 4 4
4 3 3 3 3 3 3 3 3 3 3 2 2 3 3 3 4 4 3 3 3 3 2 2 1 1 1 1 1 1 1 1 2 2 3 3 4 4 5 5 5 5 6
4 4 3 3 3 3 3 4 4 4 3 3 2 3 3 3 4 4 3 4 4 3 3 2 2 1 2 2 2 2 3 2 2 2 2 2 3 3 4 6 7 7 8
4 4 4 4 4 3 4 5 5 3 3 3 3 3 3 3 4 5 5 5 6 5 4 3 3 3 4 4 3 3 2 1 2 2 3 3 3 3 4 5 7 9 9
5 4 4 4 4 4 5 6 6 4 3 3 3 3 2 2 3 3 3 4 5 5 6 5 5 5 5 6 5 4 4 4 4 2 3 3 3 4 5 7 9 10 11
4 4 4 4 4 5 6 6 6 4 3 3 3 4 3 3 3 3 3 2 3 4 5 5 5 6 6 5 6 5 5 3 2 2 3 3 3 4 4 6 9 12 12
5 5 4 5 5 5 5 6 5 3 3 3 3 3 4 4 5 5 4 3 3 4 4 5 6 6 5 5 5 3 2 3 3 3 4 3 3 3 3 4 7 10 12
5 5 5 5 6 6 6 7 7 3 3 3 3 3 5 5 5 6 5 5 5 6 4 3 3 4 4 4 6 6 5 4 3 3 4 4 3 2 3 3 4 5 8
Wind_Direction
142 145 148 92 90 132 124 93 69 53 44 30 17 358 318 290 237 212 206 201 204 204 204 211 218 219 217 220 220 216 215 216 215 211 213 215 215 212 211 211 210 208 203
166 141 107 90 96 160 165 147 122 90 55 36 15 8 331 310 119 151 146 189 196 193 209 218 227 226 224 227 226 223 223 223 221 216 217 218 217 217 217 217 215 208 203
171 154 138 135 185 157 127 114 100 93 75 56 25 20 41 70 96 97 110 113 90 213 231 227 230 230 225 229 233 234 228 228 226 220 217 217 218 221 226 219 214 208 206
156 148 147 170 167 141 123 116 107 96 80 74 60 47 56 63 74 91 95 79 47 352 289 238 236 237 229 232 241 241 233 231 229 225 220 218 219 220 223 216 214 215 213
145 148 147 154 147 124 108 132 103 117 114 100 84 57 46 51 48 71 80 74 61 40 22 20 4 303 269 256 250 248 237 228 227 226 220 217 218 220 220 217 217 215 212
136 136 130 130 131 113 96 102 104 98 102 109 86 65 52 48 49 49 57 64 60 48 38 36 24 360 352 326 296 280 251 239 234 230 222 217 219 220 217 215 215 215 215
105 117 115 119 121 119 122 119 108 94 79 93 91 71 49 49 51 43 47 58 53 47 52 51 42 34 21 25 19 14 351 297 250 227 222 216 214 215 215 215 214 213 210
91 107 122 134 132 119 99 101 106 109 87 88 110 112 67 27 38 39 42 62 61 56 52 49 47 42 34 28 23 31 31 33 46 183 194 199 202 196 197 205 205 202 202
79 102 123 128 128 135 139 136 133 131 125 92 79 129 142 200 33 29 38 54 60 55 48 49 50 45 39 32 29 35 43 47 51 57 112 138 159 170 178 184 187 195 198
62 91 94 113 124 131 138 155 136 125 128 133 91 56 112 142 147 102 24 43 50 50 40 43 44 44 41 37 37 48 51 52 53 65 82 100 121 143 160 177 184 186 190
16 53 110 117 114 125 135 124 123 128 135 141 137 116 89 73 100 149 192 41 43 31 34 36 38 41 39 34 32 49 57 58 59 65 75 79 83 96 111 134 147 158 168
359 34 102 112 125 135 143 149 137 130 133 129 134 140 146 147 165 154 167 172 162 11 29 34 33 29 30 30 31 42 55 59 59 62 68 71 76 82 85 94 114 139 143
306 313 111 120 132 152 153 141 128 130 143 144 157 168 165 161 149 146 144 151 148 356 2 17 16 1 3 17 13 25 45 60 58 56 59 63 65 72 83 90 99 99 121
227 202 152 147 144 135 130 129 121 135 131 143 150 152 161 172 158 157 154 148 139 65 348 291 334 300 311 337 349 24 40 51 57 57 61 64 67 69 72 73 73 91 102
195 165 146 133 122 118 120 123 120 125 126 132 143 145 147 179 168 162 151 154 156 178 232 249 253 264 239 219 272 58 52 47 54 62 70 77 76 73 77 77 78 80 90
176 155 149 145 137 132 130 125 124 125 123 127 138 127 121 150 149 151 157 151 154 167 196 216 222 230 195 180 199 173 149 43 47 59 57 68 78 85 91 92 91 91 95
180 180 180 172 168 163 153 147 156 145 146 139 136 145 192 156 151 154 150 147 149 154 170 222 214 198 178 202 214 209 202 197 286 325 135 117 104 124 129 133 126 118 120
193 192 185 183 189 184 172 176 188 177 175 179 187 166 198 165 160 169 165 170 171 169 168 200 204 186 201 211 224 228 220 206 220 254 231 219 219 197 179 169 165 158 155
196 194 186 193 199 195 190 196 193 190 194 202 205 204 211 177 191 192 185 183 181 171 160 176 199 195 208 183 183 248 239 240 242 242 238 238 230 221 213 207 203 195 188
190 197 201 206 208 206 202 198 191 194 202 215 219 221 215 202 209 202 194 192 180 170 158 163 184 204 220 196 181 225 253 250 252 245 237 245 239 232 229 226 222 215 208
200 201 199 209 215 214 217 203 200 202 206 221 237 239 229 217 213 205 201 196 183 179 174 184 203 210 217 204 219 214 231 254 256 238 238 248 244 240 237 235 231 226 219
199 193 202 209 215 225 218 208 199 204 205 214 236 249 245 235 231 222 217 199 184 184 192 196 212 228 235 226 216 209 212 232 259 223 221 250 236 244 242 233 233 226 222
198 199 210 212 222 228 219 217 208 203 208 216 225 234 246 249 228 222 225 209 209 211 195 195 214 229 232 221 207 213 215 224 239 218 200 250 242 247 249 241 236 230 225
199 207 216 218 225 239 223 217 206 206 212 225 229 229 234 248 231 208 205 209 229 237 227 219 226 234 235 221 208 215 218 222 243 223 197 238 247 248 253 246 237 228 225
201 204 208 214 222 245 232 215 197 200 220 243 246 235 227 238 239 204 197 218 246 261 252 239 240 246 243 221 195 183 188 211 252 245 204 220 244 251 253 250 241 229 224
203 203 211 217 220 235 235 217 196 200 222 244 250 244 232 230 232 208 206 213 237 254 255 260 260 263 253 234 202 201 204 215 240 244 204 202 224 221 253 246 240 231 226
Height
1537 1538 1539 1540 1540 1541 1542 1542 1543 1543 1544 1544 1545 1545 1545 1546 1546 1546 1546 1547 1547 1547 1548 1548 1549 1549 1550 1551 1552 1552 1553 1555 1555 1556 1558 1559 1560 1561 1562 1563 1564 1565 1567
1539 1540 1540 1541 1541 1542 1542 1543 1543 1544 1544 1544 1545 1545 1545 1546 1546 1546 1546 1546 1547 1547 1548 1548 1548 1548 1549 1549 1550 1551 1552 1553 1553 1554 1555 1557 1558 1559 1560 1561 1562 1563 1565
1540 1540 1541 1541 1542 1542 1543 1543 1543 1544 1544 1544 1545 1545 1545 1546 1546 1546 1546 1546 1547 1547 1547 1546 1547 1547 1547 1547 1548 1548 1549 1550 1551 1552 1553 1554 1555 1556 1558 1559 1560 1561 1562
1541 1541 1542 1542 1542 1543 1543 1543 1544 1544 1544 1544 1544 1545 1545 1545 1546 1546 1546 1546 1546 1546 1546 1546 1546 1546 1546 1546 1546 1546 1547 1547 1549 1550 1551 1552 1553 1554 1555 1556 1557 1558 1560
1542 1542 1542 1543 1543 1543 1543 1544 1544 1544 1544 1544 1544 1545 1545 1545 1546 1546 1546 1546 1546 1546 1546 1546 1546 1545 1545 1545 1545 1545 1545 1545 1546 1547 1548 1549 1550 1551 1552 1553 1554 1556 1557
1543 1543 1543 1543 1544 1544 1544 1544 1544 1544 1544 1544 1544 1544 1544 1545 1545 1546 1546 1546 1546 1546 1545 1545 1545 1545 1544 1544 1544 1543 1543 1543 1544 1544 1545 1546 1547 1548 1549 1550 1551 1552 1553
1543 1544 1544 1544 1544 1544 1544 1544 1544 1544 1544 1544 1544 1544 1545 1545 1545 1545 1546 1546 1546 1545 1545 1545 1545 1544 1544 1543 1543 1542 1542 1542 1542 1542 1542 1542 1543 1544 1546 1547 1548 1549 1550
1544 1544 1544 1544 1544 1544 1544 1544 1544 1544 1544 1544 1544 1544 1545 1546 1545 1545 1545 1545 1545 1545 1545 1545 1544 1544 1543 1542 1542 1541 1541 1540 1540 1540 1540 1540 1541 1542 1543 1544 1545 1546 1547
1544 1544 1544 1544 1544 1544 1544 1544 1544 1544 1544 1544 1544 1545 1545 1544 1545 1545 1545 1545 1545 1545 1545 1544 1544 1543 1542 1541 1541 1540 1539 1539 1539 1538 1538 1539 1539 1540 1541 1542 1543 1543 1544
1544 1544 1544 1544 1543 1543 1543 1543 1543 1543 1543 1544 1544 1544 1545 1544 1545 1545 1545 1545 1545 1545 1544 1544 1543 1542 1542 1541 1540 1539 1539 1538 1537 1537 1537 1537 1538 1539 1539 1540 1540 1541 1542
1543 1544 1544 1543 1543 1543 1543 1543 1543 1543 1543 1543 1543 1543 1543 1544 1544 1544 1544 1544 1544 1544 1543 1543 1542 1542 1541 1540 1540 1539 1538 1537 1537 1537 1536 1537 1537 1537 1538 1538 1539 1539 1540
1543 1543 1543 1543 1543 1543 1543 1543 1543 1543 1543 1543 1543 1543 1543 1543 1543 1543 1543 1543 1543 1543 1543 1542 1542 1541 1540 1540 1539 1539 1538 1537 1537 1536 1536 1536 1536 1536 1537 1537 1537 1538 1538
1543 1543 1543 1543 1543 1543 1543 1543 1543 1543 1542 1542 1542 1542 1542 1542 1542 1542 1542 1542 1542 1542 1542 1542 1541 1541 1540 1539 1539 1538 1537 1537 1536 1536 1536 1535 1535 1535 1535 1536 1536 1536 1536
1543 1543 1543 1543 1543 1543 1543 1543 1543 1542 1542 1542 1542 1542 1542 1542 1541 1541 1541 1541 1541 1541 1541 1541 1541 1540 1539 1539 1538 1537 1537 1537 1536 1536 1536 1535 1535 1534 1534 1535 1535 1535 1535
1543 1543 1543 1543 1543 1543 1543 1542 1542 1542 1542 1542 1541 1541 1541 1541 1541 1540 1540 1541 1541 1540 1540 1540 1540 1539 1539 1538 1537 1537 1536 1536 1536 1535 1535 1535 1534 1534 1534 1534 1534 1534 1534
1542 1542 1542 1542 1542 1542 1542 1542 1542 1541 1541 1541 1541 1540 1540 1540 1540 1539 1539 1539 1540 1540 1539 1539 1539 1538 1538 1538 1537 1536 1536 1535 1535 1535 1534 1534 1533 1533 1533 1533 1533 1533 1533
1541 1541 1542 1541 1541 1541 1541 1541 1541 1541 1541 1540 1540 1540 1539 1539 1539 1539 1538 1538 1538 1538 1537 1537 1537 1537 1537 1537 1536 1536 1535 1534 1534 1534 1533 1533 1533 1532 1532 1532 1532 1532 1532
1540 1540 1540 1540 1540 1540 1540 1540 1540 1540 1540 1539 1539 1539 1538 1538 1538 1538 1537 1537 1537 1536 1536 1535 1535 1535 1535 1535 1535 1534 1534 1533 1533 1533 1532 1532 1531 1531 1531 1531 1531 1530 1531
1538 1538 1539 1539 1539 1539 1539 1539 1539 1539 1538 1538 1538 1538 1537 1537 1536 1536 1536 1535 1535 1535 1535 1534 1534 1534 1533 1533 1533 1533 1532 1532 1531 1531 1531 1531 1530 1530 1529 1529 1529 1529 1529
1536 1536 1537 1537 1538 1538 1537 1537 1537 1537 1537 1537 1536 1536 1536 1535 1535 1534 1534 1534 1533 1533 1533 1532 1532 1532 1531 1531 1531 1530 1530 1530 1529 1529 1529 1529 1528 1528 1528 1528 1527 1527 1527
1533 1534 1535 1535 1536 1536 1536 1536 1535 1535 1535 1535 1535 1534 1534 1533 1533 1533 1532 1532 1531 1531 1531 1530 1530 1530 1529 1529 1528 1528 1527 1527 1527 1526 1526 1526 1526 1525 1525 1525 1525 1525 1525
1530 1531 1532 1533 1533 1533 1534 1534 1533 1533 1533 1532 1532 1532 1532 1531 1531 1531 1530 1530 1529 1529 1528 1528 1527 1527 1526 1526 1526 1525 1525 1524 1523 1524 1523 1523 1523 1522 1522 1522 1522 1522 1522
1527 1528 1529 1529 1530 1530 1531 1531 1531 1531 1530 1530 1530 1529 1529 1529 1529 1529 1528 1528 1527 1527 1526 1526 1525 1524 1524 1523 1523 1522 1521 1521 1520 1521 1520 1519 1519 1519 1519 1519 1519 1519 1519
1524 1525 1526 1527 1527 1528 1528 1528 1528 1528 1527 1527 1527 1527 1526 1526 1526 1526 1525 1525 1524 1524 1523 1523 1522 1522 1521 1521 1520 1519 1518 1518 1517 1517 1517 1516 1515 1515 1515 1515 1515 1515 1515
1520 1521 1523 1523 1524 1524 1525 1525 1525 1525 1524 1524 1524 1524 1524 1523 1523 1523 1522 1521 1521 1520 1520 1519 1519 1518 1518 1517 1517 1515 1514 1514 1513 1513 1513 1512 1511 1511 1511 1511 1511 1511 1511
1517 1518 1519 1520 1520 1521 1521 1521 1522 1521 1521 1521 1521 1520 1520 1520 1520 1519 1518 1517 1517 1516 1516 1515 1515 1515 1514 1513 1513 1511 1511 1510 1509 1508 1508 1508 1508 1507 1506 1506 1506 1507 1507